Location: Nitra
(0.0000°N, 18.0833°E)
Time: 18:55:42
(UTC+02:00)

A-11 Canister half - Pass Details

Date: 31 March 2023
Orbit: 1526 x 1682 km, 47.3° (Epoch: 08 June)

Event Time Altitude Azimuth Distance (km) Brightness Sun altitude
Rises 12:06:47 0° 219° (SW) 4,858 11.5 78.0°
Reaches altitude 10° 12:09:53 10° 218° (SW) 3,887 11.2 78.7°
Maximum altitude 12:19:55 86° 129° (SE) 1,678 11.9 81.0°
Drops below altitude 10° 12:30:06 10° 41° (NE) 3,934 11.4 83.1°
Sets 12:33:15 0° 41° (NE) 4,918 11.7 83.8°
